Le nostre stazioni meteo in Italia

Pubblicità
Il mio iltempo24.it
Braemar, Gran Bretagna (99089): Temperatura & dewpoint: 17.08.2017 08:00:00 - 23.08.2017 08:00:00 (BST)Braemar, Gran Bretagna (99089): Temperatura -20cm & Temperatura -100cm: 17.08.2017 08:00:00 - 23.08.2017 08:00:00 (BST)Braemar, Gran Bretagna (99089): visibility: 17.08.2017 08:00:00 - 23.08.2017 08:00:00 (BST)Braemar, Gran Bretagna (99089): precipitazioni: 17.08.2017 08:00:00 - 23.08.2017 08:00:00 (BST)
Data & Tempo tt [°C] td [°C] tt -20cm [°C] tt -100cm [°C] vv [km] rr [mm]
23.08.2017 08:00:00 15,1 13,4 - - - 0,0
23.08.2017 07:00:00 14,6 13,4 - - - 0,0
23.08.2017 06:00:00 14,7 13,5 - - - 0,0
23.08.2017 05:00:00 14,9 13,7 - - - 0,4
23.08.2017 04:00:00 15,1 13,5 - - - 0,2
23.08.2017 03:00:00 15,1 13,6 - - - 0,0
23.08.2017 02:00:00 15,1 13,6 - - - 0,0
23.08.2017 01:00:00 15,7 13,8 - - - 0,0
23.08.2017 00:00:00 14,8 13,7 - - - 0,0
22.08.2017 23:00:00 14,4 13,4 - - - 0,0
22.08.2017 22:00:00 14,7 13,3 - - - 0,0
22.08.2017 21:00:00 15,0 13,2 - - - 0,0
22.08.2017 20:00:00 15,5 13,2 - - - 0,0
22.08.2017 19:00:00 16,0 12,8 - - - 0,0
22.08.2017 18:00:00 16,4 13,3 - - - 0,0
22.08.2017 17:00:00 16,3 13,0 - - - 0,0
22.08.2017 16:00:00 16,6 13,5 - - - 0,0
22.08.2017 15:00:00 16,2 13,4 - - - 0,0
22.08.2017 14:00:00 15,7 13,2 - - - 0,0
22.08.2017 13:00:00 15,4 12,8 - - - 0,0
22.08.2017 12:00:00 15,0 12,8 - - - 0,0
22.08.2017 11:00:00 14,1 12,7 - - - 0,0
22.08.2017 10:00:00 13,2 12,6 14,2 12,5 - 0,0
22.08.2017 09:00:00 12,4 11,9 - - - 0,4
22.08.2017 08:00:00 12,3 11,5 - - - 0,0
22.08.2017 07:00:00 12,2 10,9 - - - 0,0
22.08.2017 06:00:00 12,0 10,4 - - - 0,0
22.08.2017 05:00:00 12,0 10,2 - - - 0,0
22.08.2017 04:00:00 12,1 10,3 - - - 0,0
22.08.2017 03:00:00 12,5 10,3 - - - 0,0
22.08.2017 02:00:00 12,7 10,9 - - - 0,0
22.08.2017 01:00:00 12,7 10,8 - - - 0,0
22.08.2017 00:00:00 13,2 10,8 - - - 0,0
21.08.2017 23:00:00 13,4 10,8 - - - 0,0
21.08.2017 22:00:00 14,0 10,2 - - - 0,0
21.08.2017 21:00:00 13,8 10,3 - - - 0,0
21.08.2017 20:00:00 14,8 10,4 - - - 0,0
21.08.2017 19:00:00 15,6 10,6 - - - 0,0
21.08.2017 18:00:00 15,8 10,4 - - - 0,0
21.08.2017 17:00:00 16,1 10,1 - - - 0,0
21.08.2017 16:00:00 16,0 10,2 - - - 0,0
21.08.2017 15:00:00 16,0 9,3 - - - 0,0
21.08.2017 14:00:00 16,9 8,8 - - - -
21.08.2017 13:00:00 16,1 9,1 - - - 0,0
21.08.2017 12:00:00 14,6 8,9 - - - 0,0
21.08.2017 11:00:00 14,1 9,4 - - - 0,0
21.08.2017 10:00:00 12,1 9,0 14,0 12,4 - 0,0
21.08.2017 09:00:00 10,1 8,0 - - - 0,0
21.08.2017 08:00:00 9,3 7,9 - - - 0,0
21.08.2017 07:00:00 8,5 7,6 - - - 0,0
21.08.2017 06:00:00 8,8 7,9 - - - 0,0
21.08.2017 05:00:00 8,8 7,5 - - - 0,0
21.08.2017 04:00:00 9,1 7,5 - - - 0,0
21.08.2017 03:00:00 9,2 7,5 - - - 0,0
21.08.2017 02:00:00 9,6 8,0 - - - 0,0
21.08.2017 01:00:00 10,0 8,1 - - - 0,0
21.08.2017 00:00:00 11,5 10,0 - - - 0,0
20.08.2017 23:00:00 12,1 10,0 - - - 0,0
20.08.2017 22:00:00 12,7 9,7 - - - 0,0
20.08.2017 21:00:00 13,3 9,8 - - - 0,0
20.08.2017 20:00:00 14,6 9,5 - - - 0,0
20.08.2017 19:00:00 16,5 7,5 - - - 0,0
20.08.2017 18:00:00 16,6 7,7 - - - 0,0
20.08.2017 17:00:00 17,4 8,5 - - - 0,0
20.08.2017 16:00:00 18,2 8,2 - - - 0,0
20.08.2017 15:00:00 17,3 7,8 - - - 0,0
20.08.2017 14:00:00 17,0 8,4 - - - 0,0
20.08.2017 13:00:00 15,4 7,4 - - - 0,0
20.08.2017 12:00:00 15,6 7,7 - - - 0,0
20.08.2017 11:00:00 14,4 7,4 - - - 0,0
20.08.2017 10:00:00 14,1 6,8 13,2 12,4 - 0,0
20.08.2017 09:00:00 12,6 7,3 - - - 0,0
20.08.2017 08:00:00 11,4 8,0 - - - 0,0
20.08.2017 07:00:00 10,2 7,5 - - - 0,0
20.08.2017 06:00:00 9,9 7,0 - - - 0,0
20.08.2017 05:00:00 10,6 7,3 - - - 0,0
20.08.2017 04:00:00 11,2 8,5 - - - 0,0
20.08.2017 03:00:00 11,4 8,5 - - - 0,0
20.08.2017 02:00:00 11,7 8,4 - - - 0,0
20.08.2017 01:00:00 11,5 8,5 - - - 0,0
20.08.2017 00:00:00 11,6 8,8 - - - 0,0
19.08.2017 23:00:00 11,7 9,1 - - - 0,0
19.08.2017 22:00:00 11,9 9,4 - - - 0,0
19.08.2017 21:00:00 12,0 9,0 - - - 0,0
19.08.2017 20:00:00 12,2 10,3 - - - 0,4
19.08.2017 19:00:00 13,4 9,4 - - - 0,0
19.08.2017 18:00:00 13,9 10,7 - - - 0,2
19.08.2017 17:00:00 12,6 9,2 - - - 1,4
19.08.2017 16:00:00 14,8 10,9 - - - 0,2
19.08.2017 15:00:00 13,6 10,4 - - - 0,0
19.08.2017 14:00:00 14,7 9,9 - - - 0,0
19.08.2017 13:00:00 14,6 9,2 - - - 0,0
19.08.2017 12:00:00 13,7 8,9 - - - 0,0
19.08.2017 11:00:00 14,2 8,6 - - - 0,0
19.08.2017 10:00:00 12,5 8,6 13,2 12,5 - 0,0
19.08.2017 09:00:00 10,6 7,4 - - - 0,0
19.08.2017 08:00:00 10,1 5,8 - - - 0,0
19.08.2017 07:00:00 9,7 5,6 - - - 0,0
19.08.2017 06:00:00 9,4 6,0 - - - 0,0
19.08.2017 05:00:00 10,0 6,7 - - - 0,0
19.08.2017 04:00:00 10,5 7,5 - - - 0,0
19.08.2017 03:00:00 10,4 7,6 - - - 0,0
19.08.2017 02:00:00 11,2 8,3 - - - 0,0
19.08.2017 01:00:00 11,0 8,7 - - - 0,0
19.08.2017 00:00:00 11,0 9,3 - - - 0,0
18.08.2017 23:00:00 11,3 8,7 - - - 0,0
18.08.2017 22:00:00 11,5 8,5 - - - 0,0
18.08.2017 21:00:00 11,7 8,1 - - - 0,0
18.08.2017 20:00:00 12,1 8,1 - - - 0,0
18.08.2017 19:00:00 12,1 8,7 - - - 0,2
18.08.2017 18:00:00 11,4 8,7 - - - 0,0
18.08.2017 17:00:00 11,3 8,4 - - - 0,0
18.08.2017 16:00:00 11,7 7,9 - - - 0,2
18.08.2017 15:00:00 11,5 8,5 - - - 0,0
18.08.2017 14:00:00 11,0 9,2 - - - 0,0
18.08.2017 13:00:00 10,4 8,4 - - - 0,4
18.08.2017 12:00:00 10,3 7,7 - - - 0,4
18.08.2017 11:00:00 10,2 7,6 - - - 0,2
18.08.2017 10:00:00 10,9 7,4 13,7 12,5 - 0,0
18.08.2017 09:00:00 11,0 9,2 - - - 0,0
18.08.2017 08:00:00 10,6 10,4 - - - 0,0
18.08.2017 07:00:00 10,2 9,9 - - - 0,0
18.08.2017 06:00:00 9,4 9,0 - - - 0,0
18.08.2017 05:00:00 10,1 9,8 - - - 0,2
18.08.2017 04:00:00 10,9 10,5 - - - 0,2
18.08.2017 03:00:00 10,5 9,8 - - - 0,0
18.08.2017 02:00:00 10,1 8,8 - - - 0,0
18.08.2017 01:00:00 11,0 10,0 - - - 0,0
18.08.2017 00:00:00 10,6 9,5 - - - 0,0
17.08.2017 23:00:00 11,0 8,9 - - - 0,0
17.08.2017 22:00:00 12,7 9,8 - - - 0,0
17.08.2017 21:00:00 13,6 9,7 - - - 0,0
17.08.2017 20:00:00 14,8 9,5 - - - 0,0
17.08.2017 19:00:00 15,2 10,5 - - - 0,0
17.08.2017 18:00:00 16,7 10,1 - - - 0,0
17.08.2017 17:00:00 16,9 9,6 - - - 0,0
17.08.2017 16:00:00 18,8 10,5 - - - 0,0
17.08.2017 15:00:00 17,9 9,0 - - - 0,0
17.08.2017 14:00:00 18,5 10,1 - - - 0,0
17.08.2017 13:00:00 17,7 10,2 - - - 0,0
17.08.2017 12:00:00 17,1 9,3 - - - 0,0
17.08.2017 11:00:00 16,2 9,7 - - - 0,0
17.08.2017 10:00:00 14,9 9,0 13,4 12,4 10 0,0
17.08.2017 09:00:00 13,6 8,7 - - - 0,0
17.08.2017 08:00:00 12,1 9,3 - - - 0,0

tt = Temperatura
td = dewpoint
tt -20cm = Temperatura -20cm
tt -100cm = Temperatura -100cm
vv = visibility
rr = precipitazioni

Stazioni seguenti

WeatherPro
AMSI
MeteoEarth